Year,Month,Day,Hour,Minute,Value (Times are PST for temperature in C)
2013,05,04,00,00,11.10
2013,05,04,00,01,11.10
2013,05,04,00,02,11.10
2013,05,04,00,03,11.10
2013,05,04,00,04,11.00
2013,05,04,00,05,11.00
2013,05,04,00,06,11.00
2013,05,04,00,07,11.00
2013,05,04,00,08,11.00
2013,05,04,00,09,11.00
2013,05,04,00,10,11.00
2013,05,04,00,11,10.90
2013,05,04,00,12,10.90
2013,05,04,00,13,10.90
2013,05,04,00,14,10.90
2013,05,04,00,15,10.90
2013,05,04,00,16,10.90
2013,05,04,00,17,10.90
2013,05,04,00,18,10.90
2013,05,04,00,19,10.90
2013,05,04,00,20,10.90
2013,05,04,00,21,10.90
2013,05,04,00,22,10.90
2013,05,04,00,23,10.90
2013,05,04,00,24,10.90
2013,05,04,00,25,10.90
2013,05,04,00,26,10.80
2013,05,04,00,27,10.80
2013,05,04,00,28,10.80
2013,05,04,00,29,10.80
2013,05,04,00,30,10.80
2013,05,04,00,31,10.80
2013,05,04,00,32,10.80
2013,05,04,00,33,10.80
2013,05,04,00,34,10.80
2013,05,04,00,35,10.80
2013,05,04,00,36,10.80
2013,05,04,00,37,10.80
2013,05,04,00,38,10.80
2013,05,04,00,39,10.70
2013,05,04,00,40,10.70
2013,05,04,00,41,10.70
2013,05,04,00,42,10.70
2013,05,04,00,43,10.60
2013,05,04,00,44,10.60
2013,05,04,00,45,10.60
2013,05,04,00,46,10.60
2013,05,04,00,47,10.50
2013,05,04,00,48,10.50
2013,05,04,00,49,10.50
2013,05,04,00,50,10.40
2013,05,04,00,51,10.40
2013,05,04,00,52,10.40
2013,05,04,00,53,10.40
2013,05,04,00,54,10.40
2013,05,04,00,55,10.40
2013,05,04,00,56,10.40
2013,05,04,00,57,10.40
2013,05,04,00,58,10.40
2013,05,04,00,59,10.40
2013,05,04,01,00,10.40
2013,05,04,01,01,10.40
2013,05,04,01,02,10.40
2013,05,04,01,03,10.40
2013,05,04,01,04,10.40
2013,05,04,01,05,10.40
2013,05,04,01,06,10.40
2013,05,04,01,07,10.50
2013,05,04,01,08,10.40
2013,05,04,01,09,10.40
2013,05,04,01,10,10.40
2013,05,04,01,11,10.30
2013,05,04,01,12,10.30
2013,05,04,01,13,10.30
2013,05,04,01,14,10.30
2013,05,04,01,15,10.20
2013,05,04,01,16,10.20
2013,05,04,01,17,10.20
2013,05,04,01,18,10.10
2013,05,04,01,19,10.10
2013,05,04,01,20,10.00
2013,05,04,01,21,10.00
2013,05,04,01,22,10.00
2013,05,04,01,23,10.00
2013,05,04,01,24,9.90
2013,05,04,01,25,9.90
2013,05,04,01,26,9.90
2013,05,04,01,27,9.90
2013,05,04,01,28,9.90
2013,05,04,01,29,9.90
2013,05,04,01,30,9.90
2013,05,04,01,31,10.00
2013,05,04,01,32,10.00
2013,05,04,01,33,10.10
2013,05,04,01,34,10.10
2013,05,04,01,35,10.20
2013,05,04,01,36,10.20
2013,05,04,01,37,10.20
2013,05,04,01,38,10.30
2013,05,04,01,39,10.30
2013,05,04,01,40,10.20
2013,05,04,01,41,10.30
2013,05,04,01,42,10.30
2013,05,04,01,43,10.20
2013,05,04,01,44,10.20
2013,05,04,01,45,10.20
2013,05,04,01,46,10.10
2013,05,04,01,47,10.10
2013,05,04,01,48,10.00
2013,05,04,01,49,10.00
2013,05,04,01,50,9.90
2013,05,04,01,51,9.90
2013,05,04,01,52,9.90
2013,05,04,01,53,9.90
2013,05,04,01,54,9.90
2013,05,04,01,55,9.90
2013,05,04,01,56,9.80
2013,05,04,01,57,9.80
2013,05,04,01,58,9.90
2013,05,04,01,59,9.90
2013,05,04,02,00,9.90
2013,05,04,02,01,9.90
2013,05,04,02,02,9.90
2013,05,04,02,03,9.90
2013,05,04,02,04,9.90
2013,05,04,02,05,9.90
2013,05,04,02,06,10.00
2013,05,04,02,07,10.00
2013,05,04,02,08,10.00
2013,05,04,02,09,10.00
2013,05,04,02,10,10.00
2013,05,04,02,11,10.00
2013,05,04,02,12,10.00
2013,05,04,02,13,9.90
2013,05,04,02,14,9.90
2013,05,04,02,15,9.90
2013,05,04,02,16,9.90
2013,05,04,02,17,9.90
2013,05,04,02,18,9.90
2013,05,04,02,19,9.90
2013,05,04,02,20,9.90
2013,05,04,02,21,9.90
2013,05,04,02,22,9.90
2013,05,04,02,23,9.80
2013,05,04,02,24,9.80
2013,05,04,02,25,9.80
2013,05,04,02,26,9.80
2013,05,04,02,27,9.80
2013,05,04,02,28,9.80
2013,05,04,02,29,9.70
2013,05,04,02,30,9.70
2013,05,04,02,31,9.70
2013,05,04,02,32,9.70
2013,05,04,02,33,9.70
2013,05,04,02,34,9.70
2013,05,04,02,35,9.70
2013,05,04,02,36,9.80
2013,05,04,02,37,9.80
2013,05,04,02,38,9.90
2013,05,04,02,39,10.00
2013,05,04,02,40,10.00
2013,05,04,02,41,10.10
2013,05,04,02,42,10.20
2013,05,04,02,43,10.30
2013,05,04,02,44,10.30
2013,05,04,02,45,10.30
2013,05,04,02,46,10.30
2013,05,04,02,47,10.30
2013,05,04,02,48,10.30
2013,05,04,02,49,10.30
2013,05,04,02,50,10.30
2013,05,04,02,51,10.20
2013,05,04,02,52,10.20
2013,05,04,02,53,10.20
2013,05,04,02,54,10.30
2013,05,04,02,55,10.30
2013,05,04,02,56,10.30
2013,05,04,02,57,10.30
2013,05,04,02,58,10.30
2013,05,04,02,59,10.30
2013,05,04,03,00,10.40
2013,05,04,03,01,10.40
2013,05,04,03,02,10.40
2013,05,04,03,03,10.40
2013,05,04,03,04,10.50
2013,05,04,03,05,10.50
2013,05,04,03,06,10.60
2013,05,04,03,07,10.80
2013,05,04,03,08,10.80
2013,05,04,03,09,10.90
2013,05,04,03,10,11.00
2013,05,04,03,11,11.10
2013,05,04,03,12,11.10
2013,05,04,03,13,11.10
2013,05,04,03,14,11.20
2013,05,04,03,15,11.20
2013,05,04,03,16,11.20
2013,05,04,03,17,11.30
2013,05,04,03,18,11.30
2013,05,04,03,19,11.30
2013,05,04,03,20,11.30
2013,05,04,03,21,11.30
2013,05,04,03,22,11.30
2013,05,04,03,23,11.40
2013,05,04,03,24,11.50
2013,05,04,03,25,11.50
2013,05,04,03,26,11.60
2013,05,04,03,27,11.60
2013,05,04,03,28,11.60
2013,05,04,03,29,11.60
2013,05,04,03,30,11.70
2013,05,04,03,31,11.70
2013,05,04,03,32,11.70
2013,05,04,03,33,11.70
2013,05,04,03,34,11.70
2013,05,04,03,35,11.70
2013,05,04,03,36,11.70
2013,05,04,03,37,11.70
2013,05,04,03,38,11.70
2013,05,04,03,39,11.70
2013,05,04,03,40,11.70
2013,05,04,03,41,11.60
2013,05,04,03,42,11.60
2013,05,04,03,43,11.50
2013,05,04,03,44,11.50
2013,05,04,03,45,11.50
2013,05,04,03,46,11.40
2013,05,04,03,47,11.40
2013,05,04,03,48,11.40
2013,05,04,03,49,11.30
2013,05,04,03,50,11.20
2013,05,04,03,51,11.20
2013,05,04,03,52,11.10
2013,05,04,03,53,11.00
2013,05,04,03,54,11.00
2013,05,04,03,55,10.90
2013,05,04,03,56,10.80
2013,05,04,03,57,10.80
2013,05,04,03,58,10.80
2013,05,04,03,59,10.80
2013,05,04,04,00,10.80
2013,05,04,04,01,10.80
2013,05,04,04,02,10.80
2013,05,04,04,03,10.80
2013,05,04,04,04,10.80
2013,05,04,04,05,10.80
2013,05,04,04,06,10.80
2013,05,04,04,07,10.90
2013,05,04,04,08,10.90
2013,05,04,04,09,10.90
2013,05,04,04,10,10.90
2013,05,04,04,11,11.00
2013,05,04,04,12,11.00
2013,05,04,04,13,11.00
2013,05,04,04,14,11.00
2013,05,04,04,15,11.10
2013,05,04,04,16,11.00
2013,05,04,04,17,11.10
2013,05,04,04,18,11.00
2013,05,04,04,19,11.00
2013,05,04,04,20,11.00
2013,05,04,04,21,10.90
2013,05,04,04,22,10.90
2013,05,04,04,23,10.80
2013,05,04,04,24,10.80
2013,05,04,04,25,10.70
2013,05,04,04,26,10.70
2013,05,04,04,27,10.70
2013,05,04,04,28,10.60
2013,05,04,04,29,10.60
2013,05,04,04,30,10.60
2013,05,04,04,31,10.60
2013,05,04,04,32,10.50
2013,05,04,04,33,10.60
2013,05,04,04,34,10.60
2013,05,04,04,35,10.60
2013,05,04,04,36,10.60
2013,05,04,04,37,10.60
2013,05,04,04,38,10.70
2013,05,04,04,39,10.70
2013,05,04,04,40,10.70
2013,05,04,04,41,10.70
2013,05,04,04,42,10.70
2013,05,04,04,43,10.70
2013,05,04,04,44,10.80
2013,05,04,04,45,10.80
2013,05,04,04,46,10.90
2013,05,04,04,47,11.00
2013,05,04,04,48,11.00
2013,05,04,04,49,11.10
2013,05,04,04,50,11.10
2013,05,04,04,51,11.20
2013,05,04,04,52,11.30
2013,05,04,04,53,11.30
2013,05,04,04,54,11.40
2013,05,04,04,55,11.50
2013,05,04,04,56,11.60
2013,05,04,04,57,11.60
2013,05,04,04,58,11.70
2013,05,04,04,59,11.70
2013,05,04,05,00,11.80
2013,05,04,05,01,12.00
2013,05,04,05,02,12.10
2013,05,04,05,03,12.20
2013,05,04,05,04,12.20
2013,05,04,05,05,12.10
2013,05,04,05,06,12.10
2013,05,04,05,07,12.10
2013,05,04,05,08,12.10
2013,05,04,05,09,12.10
2013,05,04,05,10,12.10
2013,05,04,05,11,12.10
2013,05,04,05,12,12.10
2013,05,04,05,13,12.10
2013,05,04,05,14,12.10
2013,05,04,05,15,12.00
2013,05,04,05,16,12.00
2013,05,04,05,17,12.00
2013,05,04,05,18,11.90
2013,05,04,05,19,11.90
2013,05,04,05,20,11.90
2013,05,04,05,21,11.80
2013,05,04,05,22,11.80
2013,05,04,05,23,11.70
2013,05,04,05,24,11.60
2013,05,04,05,25,11.60
2013,05,04,05,26,11.50
2013,05,04,05,27,11.50
2013,05,04,05,28,11.40
2013,05,04,05,29,11.30
2013,05,04,05,30,11.30
2013,05,04,05,31,11.20
2013,05,04,05,32,11.20
2013,05,04,05,33,11.10
2013,05,04,05,34,11.10
2013,05,04,05,35,11.10
2013,05,04,05,36,11.20
2013,05,04,05,37,11.20
2013,05,04,05,38,11.30
2013,05,04,05,39,11.40
2013,05,04,05,40,11.40
2013,05,04,05,41,11.50
2013,05,04,05,42,11.50
2013,05,04,05,43,11.50
2013,05,04,05,44,11.50
2013,05,04,05,45,11.50
2013,05,04,05,46,11.50
2013,05,04,05,47,11.50
2013,05,04,05,48,11.50
2013,05,04,05,49,11.50
2013,05,04,05,50,11.50
2013,05,04,05,51,11.40
2013,05,04,05,52,11.40
2013,05,04,05,53,11.50
2013,05,04,05,54,11.50
2013,05,04,05,55,11.50
2013,05,04,05,56,11.50
2013,05,04,05,57,11.50
2013,05,04,05,58,11.50
2013,05,04,05,59,11.50
2013,05,04,06,00,11.50
2013,05,04,06,01,11.40
2013,05,04,06,02,11.40
2013,05,04,06,03,11.40
2013,05,04,06,04,11.40
2013,05,04,06,05,11.50
2013,05,04,06,06,11.60
2013,05,04,06,07,11.60
2013,05,04,06,08,11.70
2013,05,04,06,09,11.70
2013,05,04,06,10,11.70
2013,05,04,06,11,11.80
2013,05,04,06,12,11.80
2013,05,04,06,13,11.90
2013,05,04,06,14,11.90
2013,05,04,06,15,12.00
2013,05,04,06,16,12.10
2013,05,04,06,17,12.10
2013,05,04,06,18,12.20
2013,05,04,06,19,12.30
2013,05,04,06,20,12.30
2013,05,04,06,21,12.40
2013,05,04,06,22,12.40
2013,05,04,06,23,12.50
2013,05,04,06,24,12.50
2013,05,04,06,25,12.60
2013,05,04,06,26,12.60
2013,05,04,06,27,12.60
2013,05,04,06,28,12.60
2013,05,04,06,29,12.60
2013,05,04,06,30,12.70
2013,05,04,06,31,12.70
2013,05,04,06,32,12.70
2013,05,04,06,33,12.70
2013,05,04,06,34,12.60
2013,05,04,06,35,12.60
2013,05,04,06,36,12.60
2013,05,04,06,37,12.60
2013,05,04,06,38,12.60
2013,05,04,06,39,12.60
2013,05,04,06,40,12.60
2013,05,04,06,41,12.60
2013,05,04,06,42,12.60
2013,05,04,06,43,12.60
2013,05,04,06,44,12.60
2013,05,04,06,45,12.60
2013,05,04,06,46,12.70
2013,05,04,06,47,12.70
2013,05,04,06,48,12.80
2013,05,04,06,49,12.90
2013,05,04,06,50,12.90
2013,05,04,06,51,12.90
2013,05,04,06,52,12.90
2013,05,04,06,53,13.00
2013,05,04,06,54,13.00
2013,05,04,06,55,13.00
2013,05,04,06,56,13.00
2013,05,04,06,57,13.10
2013,05,04,06,58,13.10
2013,05,04,06,59,13.10
2013,05,04,07,00,13.00
2013,05,04,07,01,13.00
2013,05,04,07,02,12.90
2013,05,04,07,03,13.00
2013,05,04,07,04,13.00
2013,05,04,07,05,13.00
2013,05,04,07,06,13.00
2013,05,04,07,07,13.00
2013,05,04,07,08,13.10
2013,05,04,07,09,13.10
2013,05,04,07,10,13.20
2013,05,04,07,11,13.30
2013,05,04,07,12,13.30
2013,05,04,07,13,13.40
2013,05,04,07,14,13.40
2013,05,04,07,15,13.50
2013,05,04,07,16,13.50
2013,05,04,07,17,13.50
2013,05,04,07,18,13.50
2013,05,04,07,19,13.60
2013,05,04,07,20,13.60
2013,05,04,07,21,13.60
2013,05,04,07,22,13.70
2013,05,04,07,23,13.70
2013,05,04,07,24,13.70
2013,05,04,07,25,13.70
2013,05,04,07,26,13.70
2013,05,04,07,27,13.70
2013,05,04,07,28,13.70
2013,05,04,07,29,13.70
2013,05,04,07,30,13.70
2013,05,04,07,31,13.80
2013,05,04,07,32,13.80
2013,05,04,07,33,13.80
2013,05,04,07,34,13.80
2013,05,04,07,35,13.90
2013,05,04,07,36,13.90
2013,05,04,07,37,14.00
2013,05,04,07,38,14.00
2013,05,04,07,39,14.10
2013,05,04,07,40,14.10
2013,05,04,07,41,14.20
2013,05,04,07,42,14.20
2013,05,04,07,43,14.30
2013,05,04,07,44,14.30
2013,05,04,07,45,14.30
2013,05,04,07,46,14.40
2013,05,04,07,47,14.50
2013,05,04,07,48,14.60
2013,05,04,07,49,14.60
2013,05,04,07,50,14.70
2013,05,04,07,51,14.70
2013,05,04,07,52,14.70
2013,05,04,07,53,14.70
2013,05,04,07,54,14.70
2013,05,04,07,55,14.80
2013,05,04,07,56,14.90
2013,05,04,07,57,14.90
2013,05,04,07,58,14.90
2013,05,04,07,59,14.90
2013,05,04,08,00,14.90
2013,05,04,08,01,14.90
2013,05,04,08,02,14.90
2013,05,04,08,03,14.90
2013,05,04,08,04,15.00
2013,05,04,08,05,15.10
2013,05,04,08,06,15.20
2013,05,04,08,07,15.20
2013,05,04,08,08,15.30
2013,05,04,08,09,15.30
2013,05,04,08,10,15.30
2013,05,04,08,11,15.30
2013,05,04,08,12,15.30
2013,05,04,08,13,15.30
2013,05,04,08,14,15.30
2013,05,04,08,15,15.30
2013,05,04,08,16,15.40
2013,05,04,08,17,15.40
2013,05,04,08,18,15.40
2013,05,04,08,19,15.40
2013,05,04,08,20,15.40
2013,05,04,08,21,15.40
2013,05,04,08,22,15.40
2013,05,04,08,23,15.40
2013,05,04,08,24,15.40
2013,05,04,08,25,15.40
2013,05,04,08,26,15.40
2013,05,04,08,27,15.40
2013,05,04,08,28,15.50
2013,05,04,08,29,15.60
2013,05,04,08,30,15.70
2013,05,04,08,31,15.80
2013,05,04,08,32,15.90
2013,05,04,08,33,16.00
2013,05,04,08,34,16.10
2013,05,04,08,35,16.30
2013,05,04,08,36,16.40
2013,05,04,08,37,16.50
2013,05,04,08,38,16.60
2013,05,04,08,39,16.70
2013,05,04,08,40,16.80
2013,05,04,08,41,16.80
2013,05,04,08,42,16.80
2013,05,04,08,43,16.80
2013,05,04,08,44,16.80
2013,05,04,08,45,16.80
2013,05,04,08,46,16.70
2013,05,04,08,47,16.60
2013,05,04,08,48,16.50
2013,05,04,08,49,16.40
2013,05,04,08,50,16.40
2013,05,04,08,51,16.30
2013,05,04,08,52,16.30
2013,05,04,08,53,16.40
2013,05,04,08,54,16.40
2013,05,04,08,55,16.50
2013,05,04,08,56,16.50
2013,05,04,08,57,16.60
2013,05,04,08,58,16.50
2013,05,04,08,59,16.50
2013,05,04,09,00,16.60
2013,05,04,09,01,16.60
2013,05,04,09,02,16.70
2013,05,04,09,03,16.70
2013,05,04,09,04,16.80
2013,05,04,09,05,16.80
2013,05,04,09,06,16.80
2013,05,04,09,07,16.90
2013,05,04,09,08,16.90
2013,05,04,09,09,16.90
2013,05,04,09,10,16.90
2013,05,04,09,11,17.00
2013,05,04,09,12,17.00
2013,05,04,09,13,17.00
2013,05,04,09,14,17.00
2013,05,04,09,15,17.10
2013,05,04,09,16,17.10
2013,05,04,09,17,17.10
2013,05,04,09,18,17.20
2013,05,04,09,19,17.20
2013,05,04,09,20,17.30
2013,05,04,09,21,17.30
2013,05,04,09,22,17.30
2013,05,04,09,23,17.30
2013,05,04,09,24,17.30
2013,05,04,09,25,17.30
2013,05,04,09,26,17.30
2013,05,04,09,27,17.20
2013,05,04,09,28,17.20
2013,05,04,09,29,17.10
2013,05,04,09,30,17.10
2013,05,04,09,31,17.10
2013,05,04,09,32,17.10
2013,05,04,09,33,17.10
2013,05,04,09,34,17.10
2013,05,04,09,35,17.10
2013,05,04,09,36,17.10
2013,05,04,09,37,17.00
2013,05,04,09,38,17.00
2013,05,04,09,39,16.90
2013,05,04,09,40,16.90
2013,05,04,09,41,16.90
2013,05,04,09,42,16.90
2013,05,04,09,43,16.90
2013,05,04,09,44,16.90
2013,05,04,09,45,16.90
2013,05,04,09,46,16.90
2013,05,04,09,47,16.90
2013,05,04,09,48,16.90
2013,05,04,09,49,16.90
2013,05,04,09,50,16.90
2013,05,04,09,51,16.90
2013,05,04,09,52,16.90
2013,05,04,09,53,16.80
2013,05,04,09,54,16.70
2013,05,04,09,55,16.70
2013,05,04,09,56,16.80
2013,05,04,09,57,16.90
2013,05,04,09,58,16.90
2013,05,04,09,59,17.00
2013,05,04,10,00,17.10
2013,05,04,10,01,17.20
2013,05,04,10,02,17.20
2013,05,04,10,03,17.20
2013,05,04,10,04,17.20
2013,05,04,10,05,17.30
2013,05,04,10,06,17.30
2013,05,04,10,07,17.40
2013,05,04,10,08,17.50
2013,05,04,10,09,17.50
2013,05,04,10,10,17.50
2013,05,04,10,11,17.50
2013,05,04,10,12,17.50
2013,05,04,10,13,17.40
2013,05,04,10,14,17.20
2013,05,04,10,15,17.10
2013,05,04,10,16,17.10
2013,05,04,10,17,17.00
2013,05,04,10,18,17.00
2013,05,04,10,19,16.80
2013,05,04,10,20,16.70
2013,05,04,10,21,16.60
2013,05,04,10,22,16.50
2013,05,04,10,23,16.30
2013,05,04,10,24,16.20
2013,05,04,10,25,16.10
2013,05,04,10,26,16.10
2013,05,04,10,27,16.20
2013,05,04,10,28,16.30
2013,05,04,10,29,16.30
2013,05,04,10,30,16.30
2013,05,04,10,31,16.30
2013,05,04,10,32,16.40
2013,05,04,10,33,16.40
2013,05,04,10,34,16.40
2013,05,04,10,35,16.40
2013,05,04,10,36,16.40
2013,05,04,10,37,16.40
2013,05,04,10,38,16.60
2013,05,04,10,39,16.70
2013,05,04,10,40,16.80
2013,05,04,10,41,17.00
2013,05,04,10,42,17.10
2013,05,04,10,43,17.20
2013,05,04,10,44,17.20
2013,05,04,10,45,17.30
2013,05,04,10,46,17.30
2013,05,04,10,47,17.30
2013,05,04,10,48,17.20
2013,05,04,10,49,17.10
2013,05,04,10,50,17.00
2013,05,04,10,51,17.00
2013,05,04,10,52,16.90
2013,05,04,10,53,16.90
2013,05,04,10,54,16.90
2013,05,04,10,55,17.00
2013,05,04,10,56,17.10
2013,05,04,10,57,17.20
2013,05,04,10,58,17.20
2013,05,04,10,59,17.30
2013,05,04,11,00,17.30
2013,05,04,11,01,17.30
2013,05,04,11,02,17.30
2013,05,04,11,03,17.30
2013,05,04,11,04,17.20
2013,05,04,11,05,17.20
2013,05,04,11,06,17.20
2013,05,04,11,07,17.20
2013,05,04,11,08,17.20
2013,05,04,11,09,17.30
2013,05,04,11,10,17.40
2013,05,04,11,11,17.50
2013,05,04,11,12,17.50
2013,05,04,11,13,17.60
2013,05,04,11,14,17.80
2013,05,04,11,15,17.80
2013,05,04,11,16,17.80
2013,05,04,11,17,17.80
2013,05,04,11,18,17.90
2013,05,04,11,19,17.90
2013,05,04,11,20,17.90
2013,05,04,11,21,18.00
2013,05,04,11,22,17.90
2013,05,04,11,23,17.90
2013,05,04,11,24,17.90
2013,05,04,11,25,17.90
2013,05,04,11,26,17.90
2013,05,04,11,27,17.90
2013,05,04,11,28,17.90
2013,05,04,11,29,17.80
2013,05,04,11,30,17.70
2013,05,04,11,31,17.70
2013,05,04,11,32,17.60
2013,05,04,11,33,17.60
2013,05,04,11,34,17.60
2013,05,04,11,35,17.50
2013,05,04,11,36,17.50
2013,05,04,11,37,17.50
2013,05,04,11,38,17.50
2013,05,04,11,39,17.40
2013,05,04,11,40,17.40
2013,05,04,11,41,17.40
2013,05,04,11,42,17.40
2013,05,04,11,43,17.40
2013,05,04,11,44,17.40
2013,05,04,11,45,17.40
2013,05,04,11,46,17.40
2013,05,04,11,47,17.30
2013,05,04,11,48,17.30
2013,05,04,11,49,17.30
2013,05,04,11,50,17.30
2013,05,04,11,51,17.30
2013,05,04,11,52,17.40
2013,05,04,11,53,17.40
2013,05,04,11,54,17.40
2013,05,04,11,55,17.40
2013,05,04,11,56,17.50
2013,05,04,11,57,17.60
2013,05,04,11,58,17.70
2013,05,04,11,59,17.80
2013,05,04,12,00,17.80
2013,05,04,12,01,17.90
2013,05,04,12,02,17.90
2013,05,04,12,03,17.90
2013,05,04,12,04,17.90
2013,05,04,12,05,17.90
2013,05,04,12,06,17.90
2013,05,04,12,07,17.90
2013,05,04,12,08,17.80
2013,05,04,12,09,17.70
2013,05,04,12,10,17.70
2013,05,04,12,11,17.70
2013,05,04,12,12,17.70
2013,05,04,12,13,17.80
2013,05,04,12,14,17.90
2013,05,04,12,15,17.90
2013,05,04,12,16,17.80
2013,05,04,12,17,17.70
2013,05,04,12,18,17.70
2013,05,04,12,19,17.70
2013,05,04,12,20,17.80
2013,05,04,12,21,17.80
2013,05,04,12,22,17.80
2013,05,04,12,23,17.80
2013,05,04,12,24,17.90
2013,05,04,12,25,17.90
2013,05,04,12,26,17.90
2013,05,04,12,27,17.90
2013,05,04,12,28,17.90
2013,05,04,12,29,17.90
2013,05,04,12,30,17.90
2013,05,04,12,31,18.00
2013,05,04,12,32,18.20
2013,05,04,12,33,18.30
2013,05,04,12,34,18.40
2013,05,04,12,35,18.40
2013,05,04,12,36,18.40
2013,05,04,12,37,18.50
2013,05,04,12,38,18.50
2013,05,04,12,39,18.50
2013,05,04,12,40,18.40
2013,05,04,12,41,18.30
2013,05,04,12,42,18.30
2013,05,04,12,43,18.20
2013,05,04,12,44,18.20
2013,05,04,12,45,18.10
2013,05,04,12,46,18.10
2013,05,04,12,47,18.20
2013,05,04,12,48,18.30
2013,05,04,12,49,18.30
2013,05,04,12,50,18.40
2013,05,04,12,51,18.40
2013,05,04,12,52,18.50
2013,05,04,12,53,18.60
2013,05,04,12,54,18.70
2013,05,04,12,55,18.70
2013,05,04,12,56,18.70
2013,05,04,12,57,18.70
2013,05,04,12,58,18.70
2013,05,04,12,59,18.70
2013,05,04,13,00,18.70
2013,05,04,13,01,18.70
2013,05,04,13,02,18.70
2013,05,04,13,03,18.70
2013,05,04,13,04,18.70
2013,05,04,13,05,18.70
2013,05,04,13,06,18.70
2013,05,04,13,07,18.80
2013,05,04,13,08,18.90
2013,05,04,13,09,18.90
2013,05,04,13,10,19.00
2013,05,04,13,11,19.10
2013,05,04,13,12,19.20
2013,05,04,13,13,19.30
2013,05,04,13,14,19.30
2013,05,04,13,15,19.40
2013,05,04,13,16,19.40
2013,05,04,13,17,19.40
2013,05,04,13,18,19.40
2013,05,04,13,19,19.30
2013,05,04,13,20,19.30
2013,05,04,13,21,19.30
2013,05,04,13,22,19.40
2013,05,04,13,23,19.40
2013,05,04,13,24,19.50
2013,05,04,13,25,19.50
2013,05,04,13,26,19.50
2013,05,04,13,27,19.60
2013,05,04,13,28,19.70
2013,05,04,13,29,19.70
2013,05,04,13,30,19.70
2013,05,04,13,31,19.70
2013,05,04,13,32,19.70
2013,05,04,13,33,19.80
2013,05,04,13,34,19.90
2013,05,04,13,35,20.00
2013,05,04,13,36,20.00
2013,05,04,13,37,20.10
2013,05,04,13,38,20.20
2013,05,04,13,39,20.20
2013,05,04,13,40,20.30
2013,05,04,13,41,20.30
2013,05,04,13,42,20.20
2013,05,04,13,43,20.20
2013,05,04,13,44,20.20
2013,05,04,13,45,20.30
2013,05,04,13,46,20.40
2013,05,04,13,47,20.50
2013,05,04,13,48,20.50
2013,05,04,13,49,20.70
2013,05,04,13,50,20.80
2013,05,04,13,51,21.00
2013,05,04,13,52,21.10
2013,05,04,13,53,21.20
2013,05,04,13,54,21.20
2013,05,04,13,55,21.20
2013,05,04,13,56,21.30
2013,05,04,13,57,21.30
2013,05,04,13,58,21.40
2013,05,04,13,59,21.40
2013,05,04,14,00,21.30
2013,05,04,14,01,21.30
2013,05,04,14,02,21.20
2013,05,04,14,03,21.20
2013,05,04,14,04,21.20
2013,05,04,14,05,21.20
2013,05,04,14,06,21.20
2013,05,04,14,07,21.30
2013,05,04,14,08,21.40
2013,05,04,14,09,21.30
2013,05,04,14,10,21.30
2013,05,04,14,11,21.20
2013,05,04,14,12,21.20
2013,05,04,14,13,21.30
2013,05,04,14,14,21.30
2013,05,04,14,15,21.30
2013,05,04,14,16,21.30
2013,05,04,14,17,21.30
2013,05,04,14,18,21.30
2013,05,04,14,19,21.40
2013,05,04,14,20,21.40
2013,05,04,14,21,21.40
2013,05,04,14,22,21.50
2013,05,04,14,23,21.60
2013,05,04,14,24,21.60
2013,05,04,14,25,21.50
2013,05,04,14,26,21.40
2013,05,04,14,27,21.50
2013,05,04,14,28,21.60
2013,05,04,14,29,21.80
2013,05,04,14,30,21.90
2013,05,04,14,31,21.90
2013,05,04,14,32,21.90
2013,05,04,14,33,21.80
2013,05,04,14,34,21.80
2013,05,04,14,35,21.80
2013,05,04,14,36,21.90
2013,05,04,14,37,22.00
2013,05,04,14,38,22.10
2013,05,04,14,39,22.20
2013,05,04,14,40,22.40
2013,05,04,14,41,22.50
2013,05,04,14,42,22.60
2013,05,04,14,43,22.70
2013,05,04,14,44,22.80
2013,05,04,14,45,22.90
2013,05,04,14,46,23.00
2013,05,04,14,47,23.00
2013,05,04,14,48,23.10
2013,05,04,14,49,23.10
2013,05,04,14,50,23.20
2013,05,04,14,51,23.10
2013,05,04,14,52,23.10
2013,05,04,14,53,22.90
2013,05,04,14,54,22.80
2013,05,04,14,55,22.70
2013,05,04,14,56,22.70
2013,05,04,14,57,22.70
2013,05,04,14,58,22.60
2013,05,04,14,59,22.50
2013,05,04,15,00,22.40
2013,05,04,15,01,22.40
2013,05,04,15,02,22.40
2013,05,04,15,03,22.50
2013,05,04,15,04,22.60
2013,05,04,15,05,22.70
2013,05,04,15,06,22.70
2013,05,04,15,07,22.70
2013,05,04,15,08,22.70
2013,05,04,15,09,22.70
2013,05,04,15,10,22.70
2013,05,04,15,11,22.70
2013,05,04,15,12,22.70
2013,05,04,15,13,22.70
2013,05,04,15,14,22.70
2013,05,04,15,15,22.70
2013,05,04,15,16,22.70
2013,05,04,15,17,22.70
2013,05,04,15,18,22.80
2013,05,04,15,19,22.80
2013,05,04,15,20,22.80
2013,05,04,15,21,22.80
2013,05,04,15,22,22.70
2013,05,04,15,23,22.60
2013,05,04,15,24,22.60
2013,05,04,15,25,22.50
2013,05,04,15,26,22.40
2013,05,04,15,27,22.40
2013,05,04,15,28,22.30
2013,05,04,15,29,22.30
2013,05,04,15,30,22.40
2013,05,04,15,31,22.50
2013,05,04,15,32,22.60
2013,05,04,15,33,22.60
2013,05,04,15,34,22.80
2013,05,04,15,35,22.90
2013,05,04,15,36,23.00
2013,05,04,15,37,23.10
2013,05,04,15,38,23.10
2013,05,04,15,39,23.10
2013,05,04,15,40,23.00
2013,05,04,15,41,22.90
2013,05,04,15,42,22.80
2013,05,04,15,43,22.80
2013,05,04,15,44,22.70
2013,05,04,16,02,23.20
2013,05,04,16,03,23.20
2013,05,04,16,04,23.10
2013,05,04,16,05,23.10
2013,05,04,16,06,23.00
2013,05,04,16,07,23.00
2013,05,04,16,08,22.90
2013,05,04,16,09,22.90
2013,05,04,16,10,22.90
2013,05,04,16,11,23.00
2013,05,04,16,12,23.10
2013,05,04,16,13,23.10
2013,05,04,16,14,23.00
2013,05,04,16,15,23.00
2013,05,04,16,16,22.90
2013,05,04,16,17,22.80
2013,05,04,16,18,22.80
2013,05,04,16,19,22.80
2013,05,04,16,20,22.80
2013,05,04,16,21,22.80
2013,05,04,16,22,22.90
2013,05,04,16,23,23.00
2013,05,04,16,24,23.10
2013,05,04,16,25,23.20
2013,05,04,16,26,23.30
2013,05,04,16,27,23.30
2013,05,04,16,28,23.30
2013,05,04,16,29,23.30
2013,05,04,16,30,23.30
2013,05,04,16,31,23.40
2013,05,04,16,32,23.40
2013,05,04,16,33,23.40
2013,05,04,16,34,23.50
2013,05,04,16,35,23.50
2013,05,04,16,36,23.40
2013,05,04,16,37,23.40
2013,05,04,16,38,23.40
2013,05,04,16,39,23.40
2013,05,04,16,40,23.40
2013,05,04,16,41,23.50
2013,05,04,16,42,23.50
2013,05,04,16,43,23.50
2013,05,04,16,44,23.50
2013,05,04,16,45,23.60
2013,05,04,16,46,23.60
2013,05,04,16,47,23.70
2013,05,04,16,48,23.70
2013,05,04,16,49,23.80
2013,05,04,16,50,23.80
2013,05,04,16,51,23.80
2013,05,04,16,52,23.80
2013,05,04,16,53,23.80
2013,05,04,16,54,23.90
2013,05,04,16,55,23.80
2013,05,04,16,56,23.70
2013,05,04,16,57,23.60
2013,05,04,16,58,23.50
2013,05,04,16,59,23.40
2013,05,04,17,00,23.40
2013,05,04,17,01,23.40
2013,05,04,17,02,23.40
2013,05,04,17,03,23.40
2013,05,04,17,04,23.50
2013,05,04,17,05,23.60
2013,05,04,17,06,23.60
2013,05,04,17,07,23.70
2013,05,04,17,08,23.80
2013,05,04,17,09,23.80
2013,05,04,17,10,23.90
2013,05,04,17,11,23.90
2013,05,04,17,12,24.00
2013,05,04,17,13,24.00
2013,05,04,17,14,24.10
2013,05,04,17,15,24.20
2013,05,04,17,16,24.30
2013,05,04,17,17,24.40
2013,05,04,17,18,24.40
2013,05,04,17,19,24.40
2013,05,04,17,20,24.40
2013,05,04,17,21,24.50
2013,05,04,17,22,24.40
2013,05,04,17,23,24.40
2013,05,04,17,24,24.50
2013,05,04,17,25,24.50
2013,05,04,17,26,24.40
2013,05,04,17,27,24.40
2013,05,04,17,28,24.40
2013,05,04,17,29,24.30
2013,05,04,17,30,24.20
2013,05,04,17,31,24.10
2013,05,04,17,32,24.10
2013,05,04,17,33,24.00
2013,05,04,17,34,23.90
2013,05,04,17,35,23.90
2013,05,04,17,36,23.80
2013,05,04,17,37,23.70
2013,05,04,17,38,23.60